{"data":{"norad_id":57401,"epoch":"2026-09-19T22:17:13.288992Z","epoch_age_seconds":63850,"freshness":"FRESH","line1":"1 57401U 23101C   26262.92862603  .00004037  00000+0  13845-3 0  9995","line2":"2 57401  97.2453 310.5570 0004318 140.3041 219.8517 15.30724645176137","mean_motion":15.30724645,"eccentricity":0.0004318,"inclination_deg":97.2453,"raan_deg":310.557,"arg_perigee_deg":140.3041,"mean_anomaly_deg":219.8517,"bstar":0.00013845,"rev_number":17613,"period_min":94.073091767592,"perigee_km":470.69042025117,"apogee_km":476.6076226593,"semimajor_km":6851.7860214552,"source":"CELESTRAK","updated_at":"2026-09-20T09:00:33.253425Z"}}